KC1UIX-13 Weather Reports


Display with metric or nautical units.
time (UTC)temp
F
wind
direction
speed
MPH
gust
MPH
rain 1hr
in
rain 24hr
in
rain mn
in
humidity
%
barometer
mb
20260901162018 68 249 1.0 3.0 0.00 0.00 0.00 72 1018.3
20260901161016 67 299 1.0 3.0 0.00 0.00 0.00 72 1018.4
20260901160039 67 307 1.0 3.0 0.00 0.00 0.00 72 1018.4
20260901155019 67 325 2.0 4.0 0.00 0.00 0.00 72 1018.4
20260901154019 66 334 1.0 4.0 0.00 0.00 0.00 74 1018.3
20260901153019 65 356 2.0 4.0 0.00 0.00 0.00 74 1018.2
20260901152020 65 0 2.0 4.0 0.00 0.00 0.00 75 1018.1
20260901151017 65 357 1.0 5.0 0.00 0.00 0.00 75 1018.2
20260901150017 64 8 1.0 3.0 0.00 0.00 0.00 77 1018.1
20260901145017 64 2 1.0 3.0 0.00 0.00 0.00 77 1018.0
20260901144017 63 9 0.0 2.0 0.00 0.00 0.00 79 1017.9
20260901143017 62 6 0.0 2.0 0.00 0.00 0.00 80 1017.9
20260901142020 62 358 0.0 2.0 0.00 0.00 0.00 83 1018.1
20260901141018 61 344 0.0 2.0 0.00 0.00 0.00 85 1018.3
20260901140038 60 299 1.0 2.0 0.00 0.00 0.00 86 1018.3
20260901135018 60 341 1.0 3.0 0.00 0.00 0.00 86 1018.3
20260901134018 60 344 1.0 3.0 0.00 0.00 0.00 88 1018.2
20260901133019 59 349 1.0 3.0 0.00 0.00 0.00 89 1018.1
20260901132019 59 347 1.0 3.0 0.00 0.00 0.00 89 1018.1
20260901131019 59 324 1.0 3.0 0.00 0.00 0.00 89 1018.2
20260901130039 58 342 1.0 3.0 0.00 0.00 0.00 90 1018.2
20260901125019 58 340 1.0 3.0 0.00 0.00 0.00 91 1018.1
20260901124039 58 349 0.0 1.0 0.00 0.00 0.00 91 1018.2
20260901123019 58 344 1.0 3.0 0.00 0.00 0.00 91 1018.3
20260901122019 57 325 1.0 3.0 0.00 0.00 0.00 92 1018.4
20260901121020 57 301 1.0 2.0 0.00 0.00 0.00 93 1018.4
20260901120020 57 305 1.0 2.0 0.00 0.00 0.00 93 1018.2
20260901115020 57 305 0.0 1.0 0.00 0.00 0.00 93 1018.0
20260901114019 57 11 0.0 2.0 0.00 0.00 0.00 93 1017.9
20260901113040 57 280 0.0 2.0 0.00 0.00 0.00 94 1017.8
20260901112040 56 295 0.0 1.0 0.00 0.00 0.00 94 1017.7
20260901111018 56 10 0.0 2.0 0.00 0.00 0.00 94 1017.6
20260901110041 56 0 0.0 2.0 0.00 0.00 0.00 94 1017.5
20260901105020 56 329 0.0 2.0 0.00 0.00 0.00 94 1017.6
20260901104021 55 253 1.0 3.0 0.00 0.00 0.00 94 1017.4
20260901103018 55 318 0.0 2.0 0.00 0.00 0.00 94 1017.0
20260901102019 55 345 0.0 2.0 0.00 0.00 0.00 93 1016.8
20260901101039 55 322 0.0 2.0 0.00 0.00 0.00 93 1016.7
20260901100019 55 358 1.0 3.0 0.00 0.00 0.00 93 1016.8
20260901095019 55 351 1.0 3.0 0.00 0.00 0.00 93 1016.9
20260901094018 55 352 1.0 3.0 0.00 0.00 0.00 93 1016.9
20260901093019 55 331 1.0 3.0 0.00 0.00 0.00 93 1016.9
20260901092019 55 215 0.0 2.0 0.00 0.00 0.00 93 1017.0
20260901091019 55 249 0.0 2.0 0.00 0.00 0.00 93 1017.1
20260901090020 55 10 2.0 5.0 0.00 0.00 0.00 93 1016.9
20260901085020 55 9 2.0 4.0 0.00 0.00 0.00 93 1016.9
20260901084020 55 2 2.0 4.0 0.00 0.00 0.00 93 1016.9
20260901083020 55 356 1.0 4.0 0.00 0.00 0.00 92 1016.9
20260901082020 55 345 1.0 4.0 0.00 0.00 0.00 92 1017.0
20260901081021 55 357 1.0 2.0 0.00 0.00 0.00 92 1017.0
20260901080018 56 331 1.0 2.0 0.00 0.00 0.00 92 1017.2
20260901075018 56 319 1.0 2.0 0.00 0.00 0.00 92 1017.1
20260901074021 56 11 1.0 3.0 0.00 0.00 0.00 92 1017.1
20260901073021 56 12 2.0 5.0 0.00 0.00 0.00 92 1017.1
20260901072018 56 10 2.0 5.0 0.00 0.00 0.00 92 1017.3
20260901071019 56 6 1.0 4.0 0.00 0.00 0.00 92 1017.5
20260901070018 56 8 1.0 2.0 0.00 0.00 0.00 92 1017.4
20260901065019 56 3 1.0 2.0 0.00 0.00 0.00 92 1017.4
20260901064019 57 289 0.0 1.0 0.00 0.00 0.00 92 1017.3
20260901063019 57 303 0.0 1.0 0.00 0.00 0.00 92 1017.3
20260901062019 57 214 0.0 0.0 0.00 0.00 0.00 92 1017.4
20260901061019 57 267 0.0 1.0 0.00 0.00 0.00 92 1017.5
20260901060019 57 252 0.0 1.0 0.00 0.00 0.00 92 1017.4
20260901055040 57 193 0.0 0.0 0.00 0.00 0.00 92 1017.5
20260901054020 57 353 0.0 1.0 0.00 0.00 0.00 92 1017.6
20260901053037 57 8 0.0 1.0 0.00 0.00 0.00 92 1017.5
20260901052020 57 310 0.0 1.0 0.00 0.00 0.00 92 1017.5
20260901051020 57 359 0.0 1.0 0.00 0.00 0.00 92 1017.5
20260901050021 57 20 0.0 2.0 0.00 0.00 0.00 92 1017.5
20260901045021 57 29 0.0 1.0 0.00 0.00 0.00 92 1017.5
20260901044037 57 42 0.0 1.0 0.00 0.00 0.00 91 1017.5
20260901043018 58 44 0.0 1.0 0.00 0.00 0.00 91 1017.5
20260901042039 58 0.0 0.0 0.00 0.00 0.00 91 1017.6
20260901041021 58 29 0.0 0.0 0.00 0.00 0.00 91 1017.7
20260901040021 58 355 0.0 1.0 0.00 0.00 0.00 90 1017.5
20260901035018 59 5 0.0 1.0 0.00 0.00 0.00 90 1017.5
20260901034018 59 356 0.0 2.0 0.00 0.00 0.00 89 1017.4
20260901033019 60 283 0.0 1.0 0.00 0.00 0.00 89 1017.5
20260901032019 60 235 0.0 2.0 0.00 0.00 0.00 89 1017.6
20260901031019 60 251 0.0 1.0 0.00 0.00 0.00 90 1017.6
20260901030019 60 0.0 0.0 0.00 0.00 0.00 89 1017.7
20260901025020 60 288 0.0 1.0 0.00 0.00 0.00 89 1017.6
20260901024019 60 282 0.0 0.0 0.00 0.00 0.00 88 1017.7
20260901023020 61 332 0.0 1.0 0.00 0.00 0.00 88 1017.7
20260901022020 61 260 0.0 1.0 0.00 0.00 0.00 88 1017.7
20260901021020 62 265 0.0 1.0 0.00 0.01 0.00 88 1017.8
20260901020017 62 139 0.0 1.0 0.00 0.01 0.00 88 1017.8
20260901015041 62 155 0.0 1.0 0.00 0.01 0.00 88 1017.9
20260901014021 62 134 0.0 2.0 0.00 0.01 0.00 88 1017.9
20260901013021 62 109 0.0 1.0 0.00 0.01 0.00 88 1017.9
20260901012018 62 145 0.0 2.0 0.00 0.01 0.00 87 1017.9
20260901011018 62 137 0.0 2.0 0.00 0.01 0.00 87 1018.0
20260901010019 62 139 0.0 2.0 0.00 0.01 0.00 87 1018.0
20260901005021 63 142 0.0 2.0 0.00 0.02 0.00 86 1018.0
20260901004019 63 150 0.0 2.0 0.00 0.17 0.00 86 1017.9
20260901003019 63 195 0.0 2.0 0.00 0.17 0.00 85 1017.8
20260901002019 63 167 0.0 3.0 0.00 0.17 0.00 85 1017.8
20260901001019 63 150 0.0 2.0 0.00 0.17 0.00 85 1017.9
20260901000019 63 179 0.0 2.0 0.00 0.17 0.00 84 1017.9
20260831235019 63 151 0.0 2.0 0.00 0.17 0.00 84 1017.9
20260831234020 64 20 0.0 1.0 0.00 0.17 0.00 83 1018.0
20260831233020 64 206 0.0 2.0 0.00 0.17 0.00 82 1018.1
20260831232020 65 172 0.0 3.0 0.00 0.17 0.00 81 1018.2
20260831231020 66 178 1.0 3.0 0.00 0.17 0.00 79 1018.3
20260831230041 67 187 1.0 3.0 0.00 0.17 0.00 76 1018.4
20260831225018 68 189 1.0 4.0 0.00 0.17 0.00 74 1018.4
20260831224017 68 258 1.0 6.0 0.00 0.17 0.00 73 1018.4
20260831223018 68 260 2.0 4.0 0.00 0.17 0.00 72 1018.4
20260831222021 69 243 2.0 6.0 0.00 0.17 0.00 71 1018.3
20260831221019 70 181 1.0 5.0 0.00 0.17 0.00 69 1018.2
20260831220039 70 225 1.0 5.0 0.00 0.17 0.00 68 1018.2
20260831215019 71 206 2.0 4.0 0.00 0.17 0.00 68 1018.3
20260831214019 71 238 1.0 3.0 0.00 0.17 0.00 68 1018.4
20260831213019 71 214 2.0 5.0 0.00 0.17 0.00 67 1018.5
20260831212020 72 247 1.0 4.0 0.00 0.17 0.00 64 1018.7
20260831211020 71 255 1.0 4.0 0.00 0.17 0.00 66 1018.7
20260831210019 70 220 2.0 5.0 0.00 0.17 0.00 67 1018.8
20260831205020 71 217 2.0 5.0 0.00 0.17 0.00 65 1018.8
20260831204020 72 221 2.0 6.0 0.00 0.17 0.00 63 1018.9
20260831203020 72 234 1.0 5.0 0.00 0.17 0.00 60 1018.9
20260831202017 72 205 1.0 5.0 0.00 0.17 0.00 60 1018.8
20260831201017 72 278 1.0 4.0 0.00 0.17 0.00 60 1018.7
20260831200020 71 227 2.0 5.0 0.00 0.17 0.00 60 1018.8
20260831195021 72 234 2.0 6.0 0.00 0.17 0.00 59 1019.0
20260831194021 72 181 1.0 6.0 0.00 0.17 0.00 57 1019.1
20260831193018 72 183 2.0 5.0 0.00 0.17 0.00 58 1019.2
20260831192018 71 254 2.0 5.0 0.00 0.17 0.00 59 1019.3
20260831191039 70 267 2.0 4.0 0.00 0.17 0.00 60 1019.4
20260831190039 69 220 2.0 7.0 0.00 0.17 0.00 62 1019.5
20260831185018 69 183 2.0 7.0 0.00 0.17 0.00 60 1019.5
20260831184019 71 163 3.0 8.0 0.00 0.17 0.00 59 1019.5
20260831183019 71 180 2.0 9.0 0.00 0.17 0.00 59 1019.5
20260831182019 71 187 2.0 6.0 0.00 0.17 0.00 59 1019.5
20260831181059 71 225 2.0 8.0 0.00 0.17 0.00 58 1019.6
20260831180019 70 288 2.0 5.0 0.00 0.17 0.00 60 1019.6
20260831175020 71 169 2.0 6.0 0.00 0.17 0.00 59 1019.6
20260831174020 73 226 2.0 5.0 0.00 0.17 0.00 57 1019.8
20260831173017 73 236 1.0 6.0 0.00 0.17 0.00 57 1019.8
20260831172020 73 272 1.0 4.0 0.00 0.17 0.00 56 1019.8
20260831171020 73 243 1.0 5.0 0.00 0.17 0.00 56 1019.9
20260831170041 73 246 1.0 6.0 0.00 0.17 0.00 58 1020.0
20260831165021 72 309 1.0 3.0 0.00 0.17 0.00 58 1020.0
20260831164018 72 237 1.0 4.0 0.00 0.17 0.00 58 1020.1
20260831163018 72 252 1.0 4.0 0.00 0.17 0.00 59 1020.2